#timestamp,LO_Frequency,Hit,StdDev 
1581390015.2,286047001.2,N
1581390035.1,286047001.0,N
1581390036.0,286047001.0,N
1581390055.8,286046996.5,N
1581390075.6,286046996.9,N
1581390095.5,286046999.0,N
1581390115.3,286047000.2,N
1581390135.2,286047002.5,N
1581390155.9,286047002.3,N
1581390175.7,286047002.5,N
1581390195.6,286047002.5,N
1581390215.4,286046999.7,N
1581390235.3,286047000.6,N
1581390255.1,286047002.5,N
1581390256.0,286047002.5,N
1581390275.8,286047004.4,N
1581390295.7,286047002.5,N
1581390315.5,286047000.7,N
1581390335.4,286047000.4,N
1581390355.2,286047000.2,N
1581390375.0,286046999.0,N
1581390375.9,286046999.0,N
1581390395.8,286046998.0,N
1581390415.6,286046997.2,N
1581390435.4,286046998.2,N
1581390455.3,286047000.7,N
1581390475.1,286046998.8,N
1581390495.9,286047000.6,N
1581390515.7,286047001.2,N
1581390535.5,286047001.6,N
1581390555.4,286047001.9,N
1581390575.2,286047001.6,N
1581390595.0,286047004.0,N
1581390596.0,286047004.0,N
1581390615.8,286047002.5,N
1581390635.6,286047002.8,N
1581390655.5,286047003.3,N
1581390675.3,286047005.9,Y
1581390695.2,286047003.8,P
1581390715.9,286047001.7,N
1581390735.7,286047002.1,N
1581390755.6,286047002.3,N
1581390775.4,286046999.8,N
1581390795.2,286047001.4,N
1581390815.1,286047000.1,N
1581390816.0,286047000.1,N
1581390835.8,286047000.6,N
1581390855.7,286047000.6,N
1581390875.5,286046998.4,N
1581390895.3,286046998.1,N
1581390915.2,286047000.4,N
1581390935.0,286046999.5,N
1581390935.9,286046999.5,N
1581390955.7,286046999.0,N
1581390975.6,286046999.0,N
1581390995.4,286046996.6,N
1581391015.3,286047000.7,N
1581391035.1,286046998.7,N
1581391036.0,286046998.7,N
1581391055.8,286046998.5,N
1581391075.7,286046995.3,N
1581391095.5,286046998.4,N
1581391115.3,286046999.3,N
1581391135.2,286046996.9,N
1581391155.0,286046999.6,N
1581391155.9,286046999.6,N
1581391175.8,286046998.9,N
1581391195.6,286046999.0,N
1581391215.4,286046996.5,N
1581391235.3,286047001.2,N
1581391255.1,286047000.1,N
1581391275.9,286047000.5,N
1581391295.7,286046999.9,N
1581391315.5,286047000.5,N
1581391335.4,286046997.2,N
1581391355.2,286046995.0,Y
1581391375.0,286046996.6,P
1581391375.9,286046996.6,N
1581391395.8,286046999.4,N
1581391415.6,286047000.9,N
1581391435.5,286046999.0,N
1581391455.3,286046998.1,N
1581391475.1,286046999.9,N
1581391495.9,286046998.6,N
1581391515.7,286046998.1,N
1581391535.5,286046997.5,N
1581391555.4,286046997.8,N
1581391575.2,286046997.2,N
1581391595.1,286046999.0,N
1581391596.0,286046999.0,N
1581391615.8,286046998.3,N
1581391635.6,286046999.1,N
1581391655.5,286046998.8,N
1581391675.3,286047000.5,N
1581391695.2,286046998.5,N
1581391715.9,286047000.6,N
1581391735.7,286046999.1,N
1581391755.6,286046998.2,N
1581391775.4,286046996.6,Y
1581391795.2,286046999.0,P
1581391815.1,286047002.3,P
1581391816.0,286047002.3,N
1581391835.8,286047002.3,N
1581391855.7,286047001.9,N
1581391875.5,286046999.8,N
1581391895.3,286047001.5,N
1581391915.2,286046999.8,N
1581391935.0,286047000.1,N
1581391935.9,286047000.1,N
1581391955.8,286047000.7,N
1581391975.6,286047000.9,N
1581391995.4,286047000.6,N
1581392015.3,286046999.9,N
1581392035.1,286046999.9,N
1581392055.9,286047002.6,N
1581392075.7,286047001.4,N
1581392095.5,286047002.7,N
1581392115.4,286046998.7,N
1581392135.2,286047002.6,N
1581392155.0,286047002.7,N
1581392155.9,286047002.7,N
1581392175.8,286047004.4,Y
1581392195.6,286047001.0,P
1581392215.5,286047000.6,P
1581392235.3,286047001.1,P
1581392255.1,286047001.2,Y
1581392275.9,286046996.7,P
1581392295.7,286046998.7,N
1581392315.6,286047001.1,N
1581392335.4,286047000.6,N
1581392355.2,286047000.0,N
1581392375.1,286046998.8,N
1581392376.0,286046998.8,N
1581392395.8,286047001.1,N
1581392415.6,286046999.6,N
1581392435.5,286046999.1,N
1581392455.3,286047002.6,N
1581392475.2,286047000.3,N
1581392495.9,286047000.9,N
1581392515.7,286047000.2,N
1581392535.6,286047000.8,N
1581392555.4,286047000.1,N
1581392575.2,286046998.4,N
1581392595.1,286046999.5,N
1581392596.0,286046999.5,N
1581392615.8,286046998.8,N
1581392635.7,286046999.4,N
1581392655.5,286046998.6,N
1581392675.3,286047002.2,N
1581392695.2,286047003.9,Y
1581392715.0,286047001.5,P
1581392715.9,286047001.5,N
1581392735.8,286047000.2,N
1581392755.6,286047000.5,N
1581392775.4,286047000.8,N
1581392795.3,286046999.5,N
1581392815.1,286046998.3,N
1581392835.9,286046998.2,N
1581392855.7,286046999.6,N
1581392875.5,286047001.2,N
1581392895.4,286046999.1,N
1581392915.2,286046998.9,N
1581392935.0,286046998.7,N
1581392935.9,286046998.7,N
1581392955.8,286046997.2,N
1581392975.6,286046998.3,N
1581392995.5,286047000.9,N
1581393015.3,286047000.9,N
1581393035.1,286047000.6,N
1581393055.9,286046998.9,N
1581393075.7,286046996.9,N
1581393095.5,286046997.2,N
1581393115.4,286046996.3,N
1581393135.2,286046993.3,Y
1581393155.1,286046996.0,P
1581393156.0,286046996.0,N
1581393175.8,286046998.0,N
1581393195.2,286046995.2,Y
1581393215.1,286046999.9,P
1581393216.0,286046999.9,N
1581393235.8,286047000.2,N
1581393255.6,286047000.2,N
1581393275.5,286047002.8,N
1581393295.3,286047003.7,N
1581393315.1,286047003.2,N
1581393335.9,286047003.1,N
1581393355.7,286047002.9,N
1581393375.6,286047003.8,N
1581393395.4,286047005.6,N
1581393415.2,286047005.7,N
1581393435.1,286047004.5,N
1581393436.0,286047004.5,N
1581393455.8,286047006.7,N
1581393475.6,286047006.3,N
1581393495.5,286047004.9,N
1581393515.3,286047005.0,N
1581393535.2,286047005.2,N
1581393555.9,286047005.6,N
1581393575.7,286047004.1,N
1581393595.6,286047002.3,N
